Weather History for West Plains, MO

Change the Weather History Date:

Tuesday, December 25, 2012

  Actual Average Record
Temperature  
Mean Temperature 27 °F 34 °F  
Max Temperature 31 °F 45 °F 68 °F (1971)
Min Temperature 23 °F 24 °F -12 °F (1983)
Degree Days  
Heating Degree Days 38 31  
Month to date heating degree days 508 709  
Since 1 July heating degree days 1452 1561  
Cooling Degree Days 0 0  
Month to date cooling degree days 0 0  
Year to date cooling degree days 1739 1354  
Moisture  
Dew Point 21 °F    
Average Humidity 75    
Maximum Humidity 81    
Minimum Humidity 69    
Precipitation  
Precipitation T in 0.09 in 2.32 in (1987)
Month to date precipitation 1.80 3.20  
Year to date precipitation 31.72 45.78  
Sea Level Pressure  
Sea Level Pressure 29.98 in    
Wind  
Wind Speed 16 mph (NNE)    
Max Wind Speed 26 mph    
Max Gust Speed 38 mph    
Visibility 6 miles    
Events Snow    
T = Trace of Precipitation, MM = Missing Value Source: NWS Daily Summary

Daily Weather History Graph

Daily Weather History Graph

Search for Another Location

Airport:

Trip Planner

Search our weather history database for the weather conditions in past years. The results will help you decide how hot, cold, wet, or windy it might be!

Date:

Astronomy

Dec. 25, 2012 Rise Set
Actual Time 7:18 AM CST 4:57 PM CST
Civil Twilight 6:49 AM CST 5:26 PM CST
Nautical Twilight 6:17 AM CST 5:58 PM CST
Astronomical Twilight 5:45 AM CST 6:30 PM CST
Moon 3:04 PM CST (12/25) 4:52 AM CST (12/25)
Length of Visible Light 10h 36m
Length of Day
9h 38m
Waxing Gibbous, 94% of the Moon is Illuminated
Dec 25
Waxing Gibbous
Dec 28
Full
Jan 4
Last Quarter
Jan 11
New
Jan 18
First Quarter

Hourly Weather History & Observations

Time (CST) Temp. Windchill Dew Point Humidity Pressure Visibility Wind Dir Wind Speed Gust Speed Precip Events Conditions
12:53 AM 23.0 °F 10.6 °F 18.0 °F 81% 30.07 in 5.0 mi NE 13.8 mph - N/A   Haze
1:25 AM 23.0 °F 11.1 °F 17.6 °F 80% 30.02 in 5.0 mi NNE 12.7 mph - N/A   Haze
1:53 AM 23.0 °F 13.9 °F 18.0 °F 81% 30.06 in 5.0 mi NNE 8.1 mph - N/A   Haze
2:53 AM 24.1 °F 13.1 °F 19.0 °F 81% 30.07 in 5.0 mi NE 11.5 mph 17.3 mph N/A   Haze
3:53 AM 24.1 °F 16.0 °F 19.0 °F 81% 30.06 in 5.0 mi NE 6.9 mph - N/A   Haze
4:53 AM 24.1 °F 13.1 °F 19.0 °F 81% 30.06 in 5.0 mi NE 11.5 mph - N/A   Haze
6:53 AM 24.1 °F 13.1 °F 18.0 °F 77% 30.08 in 6.0 mi NE 11.5 mph - N/A   Haze
7:53 AM 24.1 °F 14.4 °F 18.0 °F 77% 30.14 in 5.0 mi NNE 9.2 mph - N/A   Haze
8:10 AM 24.8 °F 14.0 °F 17.6 °F 74% 30.12 in 6.0 mi NE 11.5 mph - N/A   Haze
8:53 AM 25.0 °F 13.1 °F 18.0 °F 75% 30.13 in 6.0 mi NE 13.8 mph - N/A   Haze
9:53 AM 26.1 °F 15.0 °F 19.0 °F 75% 30.12 in 7.0 mi NE 12.7 mph - N/A   Clear
10:53 AM 27.0 °F 13.5 °F 19.0 °F 72% 30.05 in 8.0 mi NE 19.6 mph 26.5 mph N/A   Clear
11:53 AM 28.9 °F 16.9 °F 19.9 °F 69% 30.03 in 10.0 mi NE 17.3 mph 26.5 mph N/A   Clear
12:53 PM 30.9 °F 19.1 °F 21.0 °F 67% 29.98 in 10.0 mi NE 18.4 mph 26.5 mph N/A   Mostly Cloudy
1:53 PM 30.9 °F 19.8 °F 21.0 °F 67% 29.96 in 10.0 mi NE 16.1 mph 26.5 mph N/A   Mostly Cloudy
2:13 PM 30.2 °F 17.8 °F 21.2 °F 69% 29.92 in 10.0 mi NE 19.6 mph 29.9 mph N/A   Scattered Clouds
2:33 PM 30.2 °F 18.5 °F 21.2 °F 69% 29.95 in 9.0 mi NE 17.3 mph 27.6 mph N/A   Mostly Cloudy
2:53 PM 30.9 °F 19.1 °F 21.9 °F 69% 30.01 in 9.0 mi NE 18.4 mph 26.5 mph N/A   Overcast
3:53 PM 30.0 °F 18.3 °F 21.9 °F 72% 30.00 in 8.0 mi NE 17.3 mph 31.1 mph N/A   Overcast
4:53 PM 30.0 °F 16.9 °F 21.9 °F 72% 29.96 in 9.0 mi NE 21.9 mph 32.2 mph N/A   Overcast
5:53 PM 30.9 °F 17.8 °F 21.9 °F 69% 29.96 in 10.0 mi NE 23.0 mph 29.9 mph N/A   Overcast
6:53 PM 30.9 °F 18.4 °F 21.9 °F 69% 29.94 in 10.0 mi NNE 20.7 mph 33.4 mph N/A   Overcast
7:53 PM 30.0 °F 17.2 °F 21.9 °F 72% 29.94 in 10.0 mi North 20.7 mph 32.2 mph N/A   Overcast
8:26 PM 30.2 °F 17.4 °F 23.0 °F 75% 29.89 in 2.0 mi North 20.7 mph 35.7 mph 0.00 in Snow Light Snow
8:44 PM 28.4 °F 15.8 °F 23.0 °F 80% 29.89 in 3.0 mi North 18.4 mph 34.5 mph 0.00 in Snow Light Snow
8:53 PM 28.9 °F 15.8 °F 23.0 °F 78% 29.93 in 3.0 mi North 20.7 mph 28.8 mph 0.00 in Snow Light Snow
9:14 PM 28.4 °F 13.8 °F 23.0 °F 80% 29.89 in 2.5 mi North 25.3 mph 33.4 mph 0.00 in Snow Light Snow
9:24 PM 28.4 °F 15.4 °F 23.0 °F 80% 29.89 in 1.2 mi North 19.6 mph 35.7 mph 0.00 in Snow Light Snow
9:43 PM 28.4 °F 15.1 °F 23.0 °F 80% 29.88 in 2.0 mi North 20.7 mph 32.2 mph 0.00 in Snow Light Snow
9:53 PM 28.0 °F 14.9 °F 23.0 °F 81% 29.91 in 3.0 mi North 19.6 mph 31.1 mph 0.00 in Snow Light Snow
10:53 PM 28.0 °F 14.6 °F 21.9 °F 78% 29.91 in 2.0 mi North 20.7 mph 35.7 mph 0.00 in Snow Light Snow
11:04 PM 26.6 °F 13.4 °F 21.2 °F 80% 29.87 in 1.8 mi North 18.4 mph 28.8 mph 0.00 in Snow Light Snow
11:15 PM 26.6 °F 13.1 °F 21.2 °F 80% 29.87 in 2.0 mi North 19.6 mph 32.2 mph 0.00 in Snow Light Snow
11:53 PM 27.0 °F 12.2 °F 21.9 °F 81% 29.90 in 1.8 mi North 24.2 mph 38.0 mph 0.00 in Snow Light Snow